Crestview, FL

6:35 PM CDT on July 25, 2016 (GMT -0500)
Sikes

Weather History for KCEW - January, 2014

Change the Weather History Date:

Thursday, January 23, 2014

  Actual Average Record
Temperature  
Mean Temperature 40 °F -  
Max Temperature 54 °F 60 °F 77 °F (1950)
Min Temperature 27 °F 36 °F 19 °F (2011)
Degree Days  
Heating Degree Days 24    
Moisture  
Dew Point 21 °F    
Average Humidity 50    
Maximum Humidity 89    
Minimum Humidity 24    
Precipitation  
Precipitation 0.00 in - - ()
Sea Level Pressure  
Sea Level Pressure 30.39 in    
Wind  
Wind Speed 3 mph (NNE)    
Max Wind Speed 9 mph    
Max Gust Speed 21 mph    
Visibility 9 miles    
Events      
Averages and records for this station are not official NWS values.
T = Trace of Precipitation, MM = Missing Value Source: NWS Daily Summary

Daily Weather History Graph

Daily Weather History Graph

Search for Another Location

Airport or City:

Trip Planner

Search our weather history database for the weather conditions in past years. The results will help you decide how hot, cold, wet, or windy it might be!

Date:

Astronomy

Jan. 23, 2014 Rise Set
Actual Time 6:42 AM CST 5:14 PM CST
Civil Twilight 6:16 AM CST 5:39 PM CST
Nautical Twilight 5:47 AM CST 6:09 PM CST
Astronomical Twilight 5:18 AM CST 6:37 PM CST
Moon No Moon Rise 10:48 AM CST (1/23)
Length of Visible Light 11h 23m
Length of Day
10h 32m
Waning Gibbous, 55% of the Moon is Illuminated
Jan 23
Waning Gibbous
Jan 23
Last Quarter
Jan 30
New
Feb 6
First Quarter
Feb 14
Full

Hourly Weather History & Observations

Time (CST) Temp. Windchill Dew Point Humidity Pressure Visibility Wind Dir Wind Speed Gust Speed Precip Events Conditions
12:53 AM 28.9 °F - 24.1 °F 82% 30.25 in 10.0 mi Calm Calm - N/A   Clear
1:53 AM 28.0 °F - 25.0 °F 88% 30.27 in 9.0 mi Calm Calm - N/A   Clear
2:53 AM 27.0 °F - 24.1 °F 89% 30.29 in 5.0 mi Calm Calm - N/A   Clear
3:53 AM 28.0 °F - 25.0 °F 88% 30.29 in 8.0 mi Calm Calm - N/A   Clear
4:53 AM 28.0 °F - 25.0 °F 88% 30.31 in 6.0 mi Calm Calm - N/A   Clear
5:53 AM 27.0 °F 23.0 °F 24.1 °F 89% 30.34 in 5.0 mi ENE 3.5 mph - N/A   Clear
6:53 AM 30.9 °F 26.2 °F 23.0 °F 72% 30.35 in 7.0 mi NNE 4.6 mph - N/A   Clear
7:53 AM 33.1 °F - 25.0 °F 72% 30.38 in 8.0 mi Calm Calm - N/A   Clear
8:53 AM 41.0 °F 35.2 °F 17.1 °F 38% 30.41 in 10.0 mi NE 9.2 mph - N/A   Clear
9:53 AM 46.9 °F - 16.0 °F 29% 30.43 in 10.0 mi NNE 6.9 mph - N/A   Clear
10:53 AM 48.0 °F - 15.1 °F 27% 30.43 in 10.0 mi NNE 8.1 mph - N/A   Clear
11:53 AM 52.0 °F - 17.1 °F 25% 30.40 in 10.0 mi North 8.1 mph - N/A   Clear
12:53 PM 53.1 °F - 17.1 °F 24% 30.37 in 10.0 mi Variable 4.6 mph - N/A   Clear
1:53 PM 54.0 °F - 18.0 °F 24% 30.36 in 10.0 mi North 6.9 mph - N/A   Clear
2:53 PM 53.1 °F - 19.0 °F 26% 30.38 in 10.0 mi Variable 6.9 mph 17.3 mph N/A   Clear
3:53 PM 53.1 °F - 19.0 °F 26% 30.38 in 10.0 mi NNE 8.1 mph - N/A   Clear
4:53 PM 50.0 °F - 21.0 °F 32% 30.40 in 10.0 mi NNE 3.5 mph - N/A   Clear
5:53 PM 43.0 °F 40.3 °F 23.0 °F 45% 30.42 in 10.0 mi North 4.6 mph - N/A   Clear
6:53 PM 44.1 °F 40.8 °F 21.9 °F 42% 30.45 in 10.0 mi North 5.8 mph - N/A   Clear
7:53 PM 42.1 °F 39.2 °F 21.0 °F 43% 30.46 in 10.0 mi North 4.6 mph - N/A   Clear
8:53 PM 39.9 °F 36.7 °F 19.9 °F 45% 30.48 in 10.0 mi North 4.6 mph - N/A   Clear
9:53 PM 39.9 °F 35.8 °F 19.0 °F 43% 30.51 in 10.0 mi North 5.8 mph - N/A   Scattered Clouds
10:53 PM 41.0 °F 36.4 °F 19.0 °F 41% 30.51 in 10.0 mi North 6.9 mph - N/A   Overcast
11:53 PM 41.0 °F 35.2 °F 14.0 °F 33% 30.53 in 10.0 mi North 9.2 mph 20.7 mph N/A   Overcast